Time,TemperatureF,DewpointF,PressureIn,WindDirection,WindDirectionDegrees,WindSpeedMPH,WindSpeedGustMPH,Humidity,HourlyPrecipIn,Conditions,Clouds,dailyrainin,SoftwareType,DateUTC
2013-05-23 00:02:00,72.0,-99.9,-100.00,North,-999,-999.0,-999.0,-999,-99.99,,,-99.99,,2013-05-23 07:02:00,
2013-05-23 00:12:00,72.0,-99.9,-100.00,North,-999,-999.0,-999.0,-999,-99.99,,,-99.99,,2013-05-23 07:12:00,
2013-05-23 00:32:00,71.0,16.0,-100.00,North,-999,-999.0,-999.0,12,-99.99,,,0.00,,2013-05-23 07:32:00,
2013-05-23 00:42:00,71.0,16.0,-100.00,North,-999,-999.0,-999.0,12,-99.99,,,0.00,,2013-05-23 07:42:00,
2013-05-23 00:59:00,71.0,16.0,-100.00,North,-999,-999.0,-999.0,12,-99.99,,,0.00,,2013-05-23 07:59:00,
2013-05-23 01:11:00,71.0,16.0,-100.00,North,-999,-999.0,-999.0,12,-99.99,,,0.00,,2013-05-23 08:11:00,
2013-05-23 04:21:00,64.0,22.0,-100.00,North,-999,-999.0,-999.0,19,-99.99,,,-99.99,,2013-05-23 11:21:00,
2013-05-23 04:32:00,64.0,22.0,-100.00,North,-999,-999.0,-999.0,19,-99.99,,,-99.99,,2013-05-23 11:32:00,
2013-05-23 05:32:00,61.0,20.0,-100.00,North,-999,-999.0,-999.0,20,-99.99,,,-99.99,,2013-05-23 12:32:00,
2013-05-23 05:41:00,61.0,20.0,-100.00,North,-999,-999.0,-999.0,20,-99.99,,,-99.99,,2013-05-23 12:41:00,
2013-05-23 06:52:00,65.0,-99.9,-100.00,North,-999,-999.0,-999.0,-999,-99.99,,,-99.99,,2013-05-23 13:52:00,
2013-05-23 07:02:00,65.0,-99.9,-100.00,North,-999,-999.0,-999.0,-999,-99.99,,,-99.99,,2013-05-23 14:02:00,
2013-05-23 07:11:00,68.0,23.0,-100.00,North,-999,-999.0,-999.0,17,-99.99,,,-99.99,,2013-05-23 14:11:00,
2013-05-23 07:21:00,68.0,23.0,-100.00,North,-999,-999.0,-999.0,17,-99.99,,,-99.99,,2013-05-23 14:21:00,
2013-05-23 07:32:00,68.0,23.0,-100.00,North,-999,-999.0,-999.0,17,-99.99,,,-99.99,,2013-05-23 14:32:00,
2013-05-23 07:41:00,68.0,23.0,-100.00,North,-999,-999.0,-999.0,17,-99.99,,,-99.99,,2013-05-23 14:41:00,
2013-05-23 08:22:00,71.0,-99.9,-100.00,North,-999,-999.0,-999.0,-999,-99.99,,,-99.99,,2013-05-23 15:22:00,
2013-05-23 09:42:00,74.0,17.0,-100.00,North,-999,-999.0,-999.0,11,-99.99,,,-99.99,,2013-05-23 16:42:00,
2013-05-23 12:41:00,79.0,7.0,-100.00,North,-999,-999.0,-999.0,6,-99.99,,,0.00,,2013-05-23 19:41:00,
2013-05-23 12:52:00,79.0,7.0,-100.00,North,-999,-999.0,-999.0,6,-99.99,,,0.00,,2013-05-23 19:52:00,
2013-05-23 13:02:00,79.0,7.0,-100.00,North,-999,-999.0,-999.0,6,-99.99,,,0.00,,2013-05-23 20:02:00,
2013-05-23 13:52:00,82.0,-99.9,-100.00,North,-999,-999.0,-999.0,-999,-99.99,,,-99.99,,2013-05-23 20:52:00,
2013-05-23 14:01:00,82.0,-99.9,-100.00,North,-999,-999.0,-999.0,-999,-99.99,,,-99.99,,2013-05-23 21:01:00,
2013-05-23 19:52:00,79.0,-99.9,-100.00,North,-999,-999.0,-999.0,-999,-99.99,,,-99.99,,2013-05-24 02:52:00,
2013-05-23 20:02:00,79.0,-99.9,-100.00,North,-999,-999.0,-999.0,-999,-99.99,,,-99.99,,2013-05-24 03:02:00,
2013-05-23 20:11:00,79.0,-99.9,-100.00,North,-999,-999.0,-999.0,-999,-99.99,,,-99.99,,2013-05-24 03:11:00,
2013-05-23 23:00:00,72.0,-99.9,-100.00,North,-999,-999.0,-999.0,-999,-99.99,,,-99.99,,2013-05-24 06:00:00,
2013-05-23 23:22:00,72.0,-99.9,-100.00,North,-999,-999.0,-999.0,-999,-99.99,,,-99.99,,2013-05-24 06:22:00,
2013-05-23 23:32:00,72.0,-99.9,-100.00,North,-999,-999.0,-999.0,-999,-99.99,,,-99.99,,2013-05-24 06:32:00,
2013-05-23 23:42:00,72.0,-99.9,-100.00,North,-999,-999.0,-999.0,-999,-99.99,,,-99.99,,2013-05-24 06:42:00,
2013-05-23 23:52:00,72.0,-99.9,-100.00,North,-999,-999.0,-999.0,-999,-99.99,,,-99.99,,2013-05-24 06:52:00,